Powrót do katalogu

GRAVITAS

AktywnyNaukaSSO
NORAD 68495·PAYLOAD·🇺🇸 United States

Wystrzelony Mar 30, 2026 z Vandenberg Space Force Base

Loading…

Następne Przeloty (najbliższe 24 godziny)

TLE

ŚwieżeSource: Space-Track

Epoka: Sep 14, 2026, 14:00 UTC

1 68495U 26067CH  26257.58335648 -.00008674  00000-0 -15997-2 0  9997
2 68495  97.7455 210.0281 0083220   9.5556 350.8693 14.63097188  5400

Śledź GRAVITAS w czasie rzeczywistym z AllMySat

Download on the App Store